2021-098B

Last updated on Sun Oct 31 2021 00:02:02 GMT+0000 (Coordinated Universal Time)

1 49380U 21098B 21303.45645309 .26230939 12747-4 20505-3 0 9993 2 49380 51.6399 32.9096 0003799 85.0310 13.5550 16.52256858 370

Satellite not in orbit